Rockwall, TX

9:11 PM CST on December 10, 2019 (GMT -0600)
Rockwall

Weather History for KF46 - October, 2019

Change the Weather History Date:

Thursday, October 17, 2019

  Actual Average (KDFW) Record (KDFW)
Temperature  
Mean Temperature 58 °F -  
Max Temperature 72 °F 75 °F 95 °F (1972)
Min Temperature 45 °F 55 °F 41 °F (1976)
Degree Days  
Heating Degree Days 7    
Growing Degree Days 8 (Base 50)    
Moisture  
Dew Point 46 °F    
Average Humidity 68    
Maximum Humidity 100    
Minimum Humidity 38    
Precipitation  
Precipitation 0.00 in - - ()
Sea Level Pressure  
Sea Level Pressure 30.04 in    
Wind  
Wind Speed 2 mph ()    
Max Wind Speed 8 mph    
Max Gust Speed -    
Visibility 9.7 miles    
Events      
Averages and records for this station are not official NWS values.
T = Trace of Precipitation, MM = Missing Value Source: Averaged Metar Reports

Daily Weather History Graph

Daily Weather History Graph

Search for Another Location

Airport or City:

Astronomy

Oct. 17, 2019 Rise Set
Actual Time 7:31 AM CDT 6:50 PM CDT
Civil Twilight 7:06 AM CDT 7:15 PM CDT
Nautical Twilight 6:37 AM CDT 7:44 PM CDT
Astronomical Twilight 6:09 AM CDT 8:12 PM CDT
Moon 9:33 PM CDT (10/17) 10:55 AM CDT (10/17)
Length of Visible Light 12h 08m
Length of Day
11h 19m
Waning Gibbous, 86% of the Moon is Illuminated
Oct 17
Waning Gibbous
Oct 21
Last Quarter
Oct 27
New
Nov 4
First Quarter
Nov 12
Full

Hourly Weather History & Observations

Time (CDT) Temp. Windchill Dew Point Humidity Pressure Visibility Wind Dir Wind Speed Gust Speed Precip Events Conditions
12:15 AM 53.2 °F - 42.1 °F 66% 30.13 in 10.0 mi Calm Calm - N/A   Clear
12:35 AM 51.8 °F - 42.6 °F 71% 30.13 in 10.0 mi South 4.6 mph - N/A   Clear
12:55 AM 50.7 °F - 43.0 °F 75% 30.12 in 10.0 mi South 4.6 mph - N/A   Clear
1:15 AM 49.6 °F - 43.0 °F 78% 30.11 in 10.0 mi Calm Calm - N/A   Clear
1:35 AM 49.8 °F - 42.8 °F 77% 30.11 in 10.0 mi Calm Calm - N/A   Clear
1:55 AM 50.0 °F - 42.8 °F 76% 30.11 in 10.0 mi Calm Calm - N/A   Clear
2:15 AM 50.0 °F - 42.4 °F 75% 30.11 in 10.0 mi Calm Calm - N/A   Clear
2:35 AM 47.7 °F - 47.1 °F 98% 30.11 in 10.0 mi Calm Calm - N/A   Clear
2:55 AM 46.8 °F - 45.0 °F 93% 30.10 in 10.0 mi Calm Calm - N/A   Clear
3:15 AM 47.8 °F - 44.6 °F 89% 30.10 in 10.0 mi ESE 3.5 mph - N/A   Clear
3:35 AM 49.3 °F - 43.0 °F 79% 30.10 in 10.0 mi Calm Calm - N/A   Clear
3:55 AM 47.8 °F - 43.3 °F 84% 30.10 in 10.0 mi Calm Calm - N/A   Clear
4:15 AM 49.1 °F - 42.8 °F 79% 30.10 in 10.0 mi Calm Calm - N/A   Clear
4:35 AM 47.8 °F - 46.6 °F 95% 30.10 in 10.0 mi Calm Calm - N/A   Clear
4:55 AM 46.8 °F - 46.4 °F 99% 30.09 in 10.0 mi Calm Calm - N/A   Clear
5:35 AM 46.0 °F 44.8 °F 44.4 °F 94% 30.08 in 10.0 mi East 3.5 mph - N/A   Clear
5:55 AM 46.2 °F - 43.9 °F 92% 30.09 in 10.0 mi Calm Calm - N/A   Clear
6:15 AM 45.7 °F - 44.1 °F 94% 30.08 in 10.0 mi Calm Calm - N/A   Clear
6:35 AM 45.9 °F - 44.8 °F 96% 30.08 in 10.0 mi Calm Calm - N/A   Clear
6:55 AM 45.7 °F - 45.1 °F 98% 30.09 in 10.0 mi Calm Calm - N/A   Clear
7:15 AM 45.3 °F - 44.4 °F 97% 30.08 in 10.0 mi Calm Calm - N/A   Clear
7:35 AM 45.5 °F - 45.5 °F 100% 30.08 in 10.0 mi Calm Calm - N/A   Clear
7:55 AM 46.2 °F - 46.2 °F 100% 30.08 in 10.0 mi Calm Calm - N/A   Clear
8:15 AM 46.0 °F 44.8 °F 44.4 °F 94% 30.09 in 10.0 mi East 3.5 mph - N/A   Clear
8:35 AM 48.4 °F - 44.1 °F 85% 30.09 in 7.0 mi Calm Calm - N/A   Clear
8:55 AM 50.0 °F - 46.2 °F 87% 30.10 in 7.0 mi Calm Calm - N/A   Clear
9:15 AM 52.9 °F - 47.5 °F 82% 30.10 in 5.0 mi Calm Calm - N/A   Haze
9:35 AM 54.9 °F - 46.8 °F 74% 30.10 in 10.0 mi East 4.6 mph - N/A   Clear
10:15 AM 57.7 °F - 48.6 °F 71% 30.09 in 2.0 mi ESE 8.1 mph - N/A   Haze
10:35 AM 58.3 °F - 47.3 °F 67% 30.09 in 10.0 mi ESE 5.8 mph - N/A   Clear
10:55 AM 60.3 °F - 47.1 °F 62% 30.09 in 10.0 mi East 6.9 mph - N/A   Clear
11:15 AM 62.2 °F - 46.9 °F 57% 30.09 in 10.0 mi ESE 4.6 mph - N/A   Clear
11:35 AM 63.0 °F - 45.7 °F 53% 30.08 in 10.0 mi South 4.6 mph - N/A   Clear
11:55 AM 64.9 °F - 46.2 °F 51% 30.08 in 10.0 mi South 4.6 mph - N/A   Clear
12:15 PM 65.3 °F - 45.3 °F 48% 30.08 in 10.0 mi SSE 5.8 mph - N/A   Clear
12:35 PM 65.3 °F - 45.1 °F 48% 30.07 in 10.0 mi South 4.6 mph - N/A   Clear
12:55 PM 65.5 °F - 44.8 °F 47% 30.06 in 10.0 mi SSW 5.8 mph - N/A   Clear
1:15 PM 66.7 °F - 46.0 °F 47% 30.05 in 10.0 mi SW 5.8 mph - N/A   Clear
1:35 PM 66.7 °F - 46.6 °F 48% 30.04 in 10.0 mi SW 8.1 mph - N/A   Clear
1:55 PM 67.1 °F - 45.3 °F 45% 30.03 in 10.0 mi Calm Calm - N/A   Clear
2:15 PM 68.9 °F - 45.7 °F 43% 30.02 in 10.0 mi North - - N/A   Clear
2:35 PM 68.0 °F - 45.7 °F 45% 30.00 in 10.0 mi ESE 3.5 mph - N/A   Clear
2:55 PM 68.2 °F - 46.2 °F 45% 30.00 in 10.0 mi Calm Calm - N/A   Clear
3:15 PM 68.9 °F - 46.0 °F 44% 29.99 in 10.0 mi Calm Calm - N/A   Clear
3:35 PM 68.4 °F - 45.7 °F 44% 29.98 in 10.0 mi South 3.5 mph - N/A   Clear
3:55 PM 70.3 °F - 46.6 °F 43% 29.98 in 10.0 mi Calm Calm - N/A   Clear
4:15 PM 71.6 °F - 44.6 °F 38% 29.97 in 10.0 mi East 4.6 mph - N/A   Clear
4:35 PM 70.7 °F - 44.4 °F 39% 29.97 in 10.0 mi ESE 4.6 mph - N/A   Clear
4:55 PM 71.1 °F - 46.0 °F 41% 29.96 in 10.0 mi ESE 4.6 mph - N/A   Clear
5:15 PM 68.9 °F - 45.1 °F 42% 29.96 in 10.0 mi East 3.5 mph - N/A   Clear
5:40 PM 67.8 °F - 45.5 °F 45% 29.96 in 10.0 mi Calm Calm - N/A   Clear
5:55 PM 68.9 °F - 47.1 °F 46% 29.96 in 10.0 mi Calm Calm - N/A   Clear
6:15 PM 67.3 °F - 48.2 °F 50% 29.96 in 10.0 mi SE 6.9 mph - N/A   Clear
6:35 PM 65.3 °F - 47.8 °F 53% 29.96 in 10.0 mi SSE 6.9 mph - N/A   Clear
6:55 PM 63.5 °F - 47.3 °F 56% 29.97 in 10.0 mi SSE 5.8 mph - N/A   Clear
7:15 PM 61.7 °F - 47.3 °F 59% 29.96 in 10.0 mi SSE 3.5 mph - N/A   Clear
7:35 PM 60.8 °F - 47.3 °F 61% 29.96 in 10.0 mi Calm Calm - N/A   Clear
7:55 PM 58.3 °F - 47.7 °F 68% 29.97 in 10.0 mi Calm Calm - N/A   Clear
8:15 PM 57.4 °F - 48.2 °F 71% 29.97 in 10.0 mi Calm Calm - N/A   Clear
8:35 PM 57.7 °F - 47.8 °F 70% 29.97 in 10.0 mi ESE 3.5 mph - N/A   Clear
8:55 PM 55.0 °F - 47.8 °F 77% 29.97 in 10.0 mi ESE 4.6 mph - N/A   Clear
9:15 PM 57.0 °F - 47.1 °F 69% 29.97 in 10.0 mi SE 4.6 mph - N/A   Clear
9:35 PM 57.2 °F - 46.8 °F 68% 29.96 in 10.0 mi SE 5.8 mph - N/A   Clear
9:55 PM 57.2 °F - 46.4 °F 67% 29.96 in 10.0 mi SE 5.8 mph - N/A   Clear
10:15 PM 56.3 °F - 46.8 °F 70% 29.96 in 10.0 mi SE 4.6 mph - N/A   Clear
10:35 PM 55.4 °F - 46.9 °F 73% 29.96 in 10.0 mi ESE 4.6 mph - N/A   Clear
10:55 PM 54.7 °F - 46.9 °F 75% 29.96 in 10.0 mi SE 4.6 mph - N/A   Clear
11:15 PM 54.7 °F - 46.9 °F 75% 29.95 in 10.0 mi SSE 5.8 mph - N/A   Clear
11:35 PM 55.4 °F - 46.6 °F 72% 29.95 in 10.0 mi SE 5.8 mph - N/A   Clear